"2010-01-17 00:00:00",1598680,3.779,168.6,0.702,0.059,10.1,104.1348,9.86,10.89,20.08,0,110.2,13.37,10.65,130.6
"2010-01-17 00:00:30",1598681,3.96,171,1.675,0.081,10.88,104.1399,9.87,10.9,19.77,0,110.2,13.37,10.66,133.0
"2010-01-17 00:01:00",1598682,4.579,174.2,3.786,0.969,12.1,104.1629,9.93,10.9,19.17,0,110.2,13.34,10.72,136.2
"2010-01-17 00:01:30",1598683,5.65,173.6,7.682,1.363,14.1,104.1727,9.96,11.02,19.5,0,110.2,13.34,10.74,135.6
"2010-01-17 00:02:00",1598684,5.512,172.3,6.821,1.273,14.68,104.1768,9.97,11.21,20.08,0,110.2,13.34,10.75,134.3
"2010-01-17 00:02:30",1598685,6.489,179.9,6.321,1.039,15.84,104.1883,10,11.18,19.82,0,110.2,13.34,10.78,141.9
"2010-01-17 00:03:00",1598686,5.249,173.4,4.329,1.143,12.98,104.2154,10.06,11.06,19.48,0,110.2,13.34,10.85,135.4
"2010-01-17 00:03:30",1598687,4.27,171.5,0.793,0.074,10.56,104.2274,10.1,11.02,19.03,0,110.2,13.37,10.88,133.5
"2010-01-17 00:04:00",1598688,4.259,174.3,0.904,0.055,10.52,104.2301,10.1,10.98,18.14,0,110.2,13.37,10.89,136.3
"2010-01-17 00:04:30",1598689,4.433,175.4,0.818,0.076,10.88,104.249,10.15,10.99,17.8,0,110.2,13.37,10.94,137.4
"2010-01-17 00:05:00",1598690,4.621,175.3,2.8,0.528,11.44,104.2651,10.19,11.02,17.73,0,110.2,13.35,10.98,137.3
"2010-01-17 00:05:30",1598691,5.081,177.5,6.143,1.339,12.62,104.2657,10.19,11.11,18.01,0,110.2,13.34,10.98,139.5
"2010-01-17 00:06:00",1598692,5.58,182.3,7.13,1.445,14.8,104.2902,10.26,11.25,18.88,0,110.2,13.35,11.04,144.3
"2010-01-17 00:06:30",1598693,5.578,181.4,5.59,1.081,15.3,104.2992,10.28,11.28,19.93,0,110.2,13.35,11.07,143.4
"2010-01-17 00:07:00",1598694,5.348,178.1,6.071,1.027,15.1,104.2992,10.28,11.37,20.5,0,110.2,13.35,11.07,140.1
"2010-01-17 00:07:30",1598695,4.342,174.1,6.619,1.254,12.67,104.3009,10.28,11.22,20.88,0,110.2,13.35,11.07,136.1
"2010-01-17 00:08:00",1598696,3.433,167.9,0.951,0.057,10.11,104.3187,10.33,11.17,19.97,0,110.2,13.38,11.12,129.9
"2010-01-17 00:08:30",1598697,3.259,166.8,0.88,0.059,10,104.33,10.36,11.18,19.79,0,110.2,13.38,11.15,128.8
"2010-01-17 00:09:00",1598698,3.109,165.1,1.043,0.044,10.27,104.3331,10.37,11.21,19.96,0,110.2,13.38,11.15,127.1
"2010-01-17 00:09:30",1598699,3.579,168,4.722,1,11.32,104.3331,10.37,11.22,20.23,0,110.2,13.34,11.15,130.0
"2010-01-17 00:10:00",1598700,4.255,173.5,7.487,1.307,13.23,104.3331,10.37,11.38,19.95,0,110.2,13.34,11.15,135.5
"2010-01-17 00:10:30",1598701,2.917,161,1.522,0.046,11.1,104.3331,10.37,11.31,20.37,0,110.2,13.38,11.15,123.0
"2010-01-17 00:11:00",1598702,4.701,169.8,6.742,1.118,14.97,104.3331,10.37,11.57,21.55,0,110.2,13.34,11.15,131.8
"2010-01-17 00:11:30",1598703,4.405,168.3,4.92,0.98,14.62,104.3331,10.37,11.6,22.15,0,110.2,13.34,11.15,130.3
"2010-01-17 00:12:00",1598704,2.864,164.4,5.624,1.093,11.79,104.3331,10.37,11.37,22.03,0,110.2,13.34,11.15,126.4
"2010-01-17 00:12:30",1598705,2.089,158.5,1.575,0.133,9.44,104.3331,10.37,11.3,21.9,0,110.2,13.38,11.15,120.5
"2010-01-17 00:13:00",1598706,1.703,156.4,0.703,0.105,9.09,104.3294,10.36,11.3,22.3,0,110.2,13.38,11.14,118.4
"2010-01-17 00:13:30",1598707,1.208,159.3,10.68,0.179,9.35,104.3201,10.33,11.29,22.47,0,110.2,13.38,11.12,121.3
"2010-01-17 00:14:00",1598708,1.993,181.8,8.97,1.179,11.18,104.3007,10.28,11.31,22.52,0,110.2,13.35,11.07,143.8
"2010-01-17 00:14:30",1598709,2.251,187.8,9.6,1.219,12.44,104.301,10.28,11.43,22.66,0,110.2,13.35,11.07,149.8
"2010-01-17 00:15:00",1598710,0.969,160.8,11.41,0.136,10.22,104.3028,10.29,11.29,22.56,0,110.2,13.39,11.08,122.8
"2010-01-17 00:15:30",1598711,0.875,165.9,6.166,0.083,10.31,104.304,10.29,11.29,22.58,0,110.2,13.39,11.08,127.9
"2010-01-17 00:16:00",1598712,2.597,183.1,8,1.387,13.12,104.2859,10.25,11.37,22.73,0,110.2,13.36,11.03,145.1
"2010-01-17 00:16:30",1598713,2.773,185.3,10.81,1.272,13.76,104.2836,10.24,11.5,22.98,0,110.2,13.36,11.03,147.3
"2010-01-17 00:17:00",1598714,2.293,177.3,6.876,1.286,12.08,104.2872,10.25,11.38,22.86,0,110.2,13.36,11.04,139.3
"2010-01-17 00:17:30",1598715,1.819,181.7,7.521,1.176,11.73,104.284,10.24,11.41,22.95,0,110.2,13.36,11.03,143.7
"2010-01-17 00:18:00",1598716,1.29,169.8,4.527,0.134,9.16,104.2642,10.19,11.21,22.78,0,110.2,13.39,10.98,131.8
"2010-01-17 00:18:30",1598717,1.533,169.4,3.836,0.137,9.19,104.266,10.19,11.18,22.7,0,110.2,13.4,10.98,131.4
"2010-01-17 00:19:00",1598718,2.596,168.2,7.542,1.263,11.02,104.2522,10.16,11.21,22.45,0,110.1,13.36,10.95,130.2
"2010-01-17 00:19:30",1598719,2.429,166.3,3.918,0.803,10.67,104.233,10.11,11.29,22.34,0,110.2,13.36,10.90,128.3
"2010-01-17 00:20:00",1598720,3.28,168.9,5.622,1.172,12,104.2231,10.08,11.14,21.5,0,110.1,13.36,10.87,130.9
"2010-01-17 00:20:30",1598721,2.562,165.7,0.917,0.036,10.76,104.2002,10.03,11.09,20.9,0,110.1,13.4,10.81,127.7
"2010-01-17 00:21:00",1598722,3.292,169.5,6.292,1.145,12.4,104.1991,10.02,11.2,20.9,0,110.1,13.36,10.81,131.5
"2010-01-17 00:21:30",1598723,4.611,175.4,6.572,1.168,14.4,104.1856,9.99,11.22,20.97,0,110.1,13.36,10.78,137.4
"2010-01-17 00:22:00",1598724,4.285,177.6,7.832,1.3,14.31,104.1653,9.94,11.27,20.87,0,110.1,13.36,10.72,139.6
"2010-01-17 00:22:30",1598725,4.396,180.6,6.902,1.29,13.15,104.1653,9.94,11.15,20.4,0,110.1,13.36,10.72,142.6
"2010-01-17 00:23:00",1598726,3.207,177,0.952,0.143,10.56,104.161,9.93,10.97,19.53,0,110.1,13.4,10.71,139.0
"2010-01-17 00:23:30",1598727,3.205,177.9,1.324,0.115,10.28,104.1511,9.9,10.97,19.25,0,110.1,13.4,10.69,139.9
"2010-01-17 00:24:00",1598728,4.461,186.6,7.145,1.406,12.64,104.1348,9.86,11.03,19.23,0,110.1,13.36,10.65,148.6
"2010-01-17 00:24:30",1598729,3.068,175.7,4.845,0.274,10.34,104.1314,9.85,10.97,19.18,0,110.1,13.4,10.64,137.7
"2010-01-17 00:25:00",1598730,2.042,162.5,3.215,0.311,9.83,104.1314,9.85,10.9,20.94,0,110.1,13.4,10.64,124.5
"2010-01-17 00:25:30",1598731,2.642,165.2,8.15,1.201,11.88,104.1314,9.85,11.04,22.33,0,110.1,13.37,10.64,127.2
"2010-01-17 00:26:00",1598732,2.09,166.5,10.16,0.843,10.27,104.1314,9.85,10.88,22.69,0,110.1,13.37,10.64,128.5
"2010-01-17 00:26:30",1598733,3.015,178.8,10.73,1.266,12.75,104.1266,9.84,11.04,22.56,0,110.1,13.36,10.62,140.8
"2010-01-17 00:27:00",1598734,2.122,186.3,12.87,1.231,11.56,104.117,9.81,10.98,23.11,0,110.1,13.36,10.60,148.3
"2010-01-17 00:27:30",1598735,1.918,182.1,6.979,1.32,11.43,104.1003,9.77,11.01,23.07,0,110.1,13.36,10.56,144.1
"2010-01-17 00:28:00",1598736,2.42,184.3,3.909,0.8,10.7,104.0975,9.76,10.86,22.09,0,110.1,13.36,10.55,146.3
"2010-01-17 00:28:30",1598737,3.608,190,6.455,1.355,12.36,104.0975,9.76,10.9,20.86,0,110.1,13.37,10.55,152.0
"2010-01-17 00:29:00",1598738,3.425,186.5,6.359,1.202,11.78,104.0981,9.76,10.95,20.68,0,110.1,13.37,10.55,148.5
"2010-01-17 00:29:30",1598739,2.082,181.1,4.647,0.207,9.81,104.097,9.76,10.78,20.99,0,110.1,13.4,10.55,143.1
"2010-01-17 00:30:00",1598740,2.621,189.2,7.903,0.606,10.54,104.0905,9.75,10.88,21.83,0,110.1,13.37,10.53,151.2
"2010-01-17 00:30:30",1598741,3.226,193.6,22.52,1.253,11.83,104.0813,9.72,10.81,21.94,0,110.1,13.37,10.51,155.6
"2010-01-17 00:31:00",1598742,1.653,176.5,8.02,0.336,10.1,104.0833,9.73,10.76,22.29,0,110.1,13.41,10.51,138.5
"2010-01-17 00:31:30",1598743,1.935,180.4,8.58,0.875,11.42,104.0792,9.72,10.92,22.65,0,110.1,13.38,10.50,142.4
"2010-01-17 00:32:00",1598744,3.639,183.4,7.824,1.385,13.24,104.0801,9.72,10.77,22.54,0,110.1,13.38,10.50,145.4
"2010-01-17 00:32:30",1598745,2.765,177.9,6.148,0.906,11.16,104.0833,9.73,10.81,22.45,0,110.1,13.38,10.51,139.9
"2010-01-17 00:33:00",1598746,3.383,178.2,10.33,1.459,12.7,104.0821,9.72,10.96,22.53,0,110.1,13.38,10.51,140.2
"2010-01-17 00:33:30",1598747,2.756,179.8,5.81,1.366,11.3,104.0673,9.69,10.75,22.48,0,110.1,13.38,10.47,141.8
"2010-01-17 00:34:00",1598748,2.253,175.3,3.858,0.361,9.42,104.0612,9.67,10.71,22.73,0,110.1,13.42,10.46,137.3
"2010-01-17 00:34:30",1598749,2.902,179.9,9.06,1.049,10.86,104.0624,9.67,10.7,22.67,0,110.1,13.38,10.46,141.9
"2010-01-17 00:35:00",1598750,3.88,183.9,5.756,1.316,12.31,104.0639,9.68,10.81,22.61,0,110.1,13.38,10.46,145.9
"2010-01-17 00:35:30",1598751,2.616,176.5,3.699,0.306,10.06,104.0647,9.68,10.67,22.21,0,110.1,13.42,10.47,138.5
"2010-01-17 00:36:00",1598752,2.151,175.9,2.976,0.142,9.94,104.0605,9.67,10.65,22.63,0,110.1,13.42,10.45,137.9
"2010-01-17 00:36:30",1598753,2.999,183.4,6.857,1.59,12.26,104.0495,9.64,10.8,23.19,0,110.1,13.38,10.43,145.4
"2010-01-17 00:37:00",1598754,3.694,183.4,5.19,1.166,12.17,104.0323,9.6,10.71,22.92,0,110.1,13.38,10.38,145.4
"2010-01-17 00:37:30",1598755,5.202,188.6,6.296,1.226,14.78,104.0312,9.59,10.87,21.69,0,110.1,13.38,10.38,150.6
"2010-01-17 00:38:00",1598756,4.712,187.5,6.813,1.385,13.08,104.0312,9.59,10.82,21.06,0,110.1,13.38,10.38,149.5
"2010-01-17 00:38:30",1598757,3.123,179.5,3.13,0.386,9.7,104.0312,9.59,10.64,21.49,0,110.1,13.42,10.38,141.5
"2010-01-17 00:39:00",1598758,4.849,183.9,5.237,1.297,11.92,104.0312,9.59,10.69,22.15,0,110.1,13.38,10.38,145.9
"2010-01-17 00:39:30",1598759,4.652,186.4,7.363,1.241,12.08,104.0312,9.59,10.73,21.64,0,110.1,13.38,10.38,148.4
"2010-01-17 00:40:00",1598760,3.66,184.8,1.009,0.075,10.61,104.0312,9.59,10.58,20.53,0,110.1,13.42,10.38,146.8
"2010-01-17 00:40:30",1598761,4.05,183.3,1.14,0.138,10.76,104.0309,9.59,10.56,19.92,0,110.1,13.42,10.38,145.3
"2010-01-17 00:41:00",1598762,4.648,190.9,6.472,1.295,13.3,104.0298,9.59,10.68,19.78,0,110.1,13.39,10.38,152.9
"2010-01-17 00:41:30",1598763,5.574,193.8,7.257,1.251,14.24,104.0269,9.58,10.66,19.52,0,110.1,13.39,10.37,155.8
"2010-01-17 00:42:00",1598764,5.559,195.4,6.645,1.275,15.19,104.0258,9.58,10.82,19.42,0,110.1,13.39,10.37,157.4
"2010-01-17 00:42:30",1598765,4.841,190.3,5.741,1.255,12.48,104.0281,9.59,10.64,18.92,0,110.1,13.38,10.37,152.3
"2010-01-17 00:43:00",1598766,5.044,192.9,6.735,1.238,12.84,104.03,9.59,10.69,19,0,110.1,13.38,10.38,154.9
"2010-01-17 00:43:30",1598767,4.586,191,6.107,1.129,12.09,104.0309,9.59,10.71,18.97,0,110.1,13.38,10.38,153.0
"2010-01-17 00:44:00",1598768,4.113,185,1.104,0.06,10.43,104.0312,9.59,10.56,19.01,0,110.1,13.41,10.38,147.0
"2010-01-17 00:44:30",1598769,3.995,183.7,0.678,0.067,10.37,104.0312,9.59,10.57,19.46,0,110.1,13.41,10.38,145.7
"2010-01-17 00:45:00",1598770,3.892,186.4,1.375,0.059,10.88,104.0312,9.59,10.57,19.69,0,110.1,13.42,10.38,148.4
"2010-01-17 00:45:30",1598771,4.301,191.6,5.266,0.932,12.35,104.0317,9.6,10.66,19.52,0,110.1,13.38,10.38,153.6
"2010-01-17 00:46:00",1598772,5.769,199.4,6.269,1.245,15.31,104.047,9.63,10.85,19.54,0,110.1,13.38,10.42,161.4
"2010-01-17 00:46:30",1598773,5.277,196.8,6.945,1.321,13.98,104.0622,9.67,10.73,19,0,110.1,13.38,10.46,158.8
"2010-01-17 00:47:00",1598774,5.5,197.1,6.711,1.28,13.69,104.065,9.68,10.84,18.92,0,110.1,13.38,10.47,159.1
"2010-01-17 00:47:30",1598775,4.566,192.7,5.797,1.069,12.19,104.065,9.68,10.78,18.82,0,110.1,13.38,10.47,154.7
"2010-01-17 00:48:00",1598776,3.968,190.5,3.366,0.663,10.47,104.065,9.68,10.66,18.9,0,110.1,13.38,10.47,152.5
"2010-01-17 00:48:30",1598777,3.895,192,0.73,0.105,10.23,104.071,9.7,10.67,18.98,0,110.1,13.42,10.48,154.0
"2010-01-17 00:49:00",1598778,4.044,192.4,0.654,0.051,10.83,104.0935,9.75,10.67,18.62,0,110.1,13.42,10.54,154.4
"2010-01-17 00:49:30",1598779,4.159,193.7,0.507,0.065,11.21,104.0989,9.77,10.69,18.37,0,110.1,13.42,10.55,155.7
"2010-01-17 00:50:00",1598780,5.185,198.4,6.402,1.217,13.31,104.0989,9.77,10.81,18.34,0,110.1,13.39,10.55,160.4
"2010-01-17 00:50:30",1598781,5.947,205.5,6.669,1.22,15.31,104.1029,9.78,10.97,18.31,0,110.1,13.39,10.56,167.5
"2010-01-17 00:51:00",1598782,5.166,205.5,6.677,1.301,14.71,104.113,9.8,11,18.19,0,110.1,13.39,10.59,167.5
"2010-01-17 00:51:30",1598783,6.114,207,6.061,1.165,15.03,104.1255,9.83,11.01,18.18,0,110.1,13.39,10.62,169.0
"2010-01-17 00:52:00",1598784,4.549,200,5.109,1.004,11.47,104.1328,9.85,10.8,17.89,0,110.1,13.39,10.64,162.0
"2010-01-17 00:52:30",1598785,3.926,199.1,0.626,0.055,10.38,104.1328,9.85,10.8,17.86,0,110.1,13.42,10.64,161.1
"2010-01-17 00:53:00",1598786,3.885,200.3,0.723,0.044,10.53,104.1328,9.85,10.81,17.85,0,110.1,13.42,10.64,162.3
"2010-01-17 00:53:30",1598787,3.895,199.4,0.53,0.049,11.06,104.1333,9.86,10.84,17.87,0,110.1,13.42,10.64,161.4
"2010-01-17 00:54:00",1598788,3.923,199.2,0.48,0.038,11.57,104.1503,9.9,10.85,17.87,0,110.1,13.42,10.69,161.2
"2010-01-17 00:54:30",1598789,5.263,206.5,6.895,1.329,14.75,104.1633,9.93,11.12,18.11,0,110.1,13.39,10.72,168.5
"2010-01-17 00:55:00",1598790,5.523,207.9,6.639,1.274,14.99,104.1673,9.94,11.1,18.1,0,110.1,13.39,10.73,169.9
"2010-01-17 00:55:30",1598791,5.88,210.2,5.816,1.131,15.48,104.1667,9.94,11.06,18.03,0,110.1,13.39,10.73,172.2
"2010-01-17 00:56:00",1598792,4.548,203.1,6.105,1.169,12.44,104.1667,9.94,11.01,17.97,0,110.1,13.39,10.73,165.1
"2010-01-17 00:56:30",1598793,3.84,198.5,0.746,0.036,10.57,104.1667,9.94,11.03,17.96,0,110.1,13.42,10.73,160.5
"2010-01-17 00:57:00",1598794,3.797,199.2,0.625,0.025,10.15,104.1723,9.95,10.95,17.86,0,110.1,13.42,10.74,161.2
"2010-01-17 00:57:30",1598795,3.683,197.9,0.265,0.055,10.14,104.1873,9.99,10.96,17.93,0,110.1,13.42,10.78,159.9
"2010-01-17 00:58:00",1598796,3.631,196.9,0.642,0.067,10.76,104.1926,10.01,10.97,18.27,0,110.1,13.42,10.79,158.9
"2010-01-17 00:58:30",1598797,4.323,199.7,6.11,1.055,12.82,104.1991,10.02,11.15,18.83,0,110.1,13.39,10.81,161.7
"2010-01-17 00:59:00",1598798,5.417,203.7,6.717,1.334,14.38,104.2005,10.03,11.16,18.98,0,110.1,13.39,10.81,165.7
"2010-01-17 00:59:30",1598799,5.72,206.1,6.104,1.151,15.27,104.2011,10.03,11.26,19.28,0,110.1,13.39,10.82,168.1
"2010-01-17 01:00:00",1598800,4.715,201.1,6.485,1.253,13.3,104.2014,10.03,11.17,19.08,0,110.1,13.39,10.82,163.1
"2010-01-17 01:00:30",1598801,5.093,202,6.945,1.325,12.97,104.2014,10.03,11.13,18.89,0,110.1,13.38,10.82,164.0
"2010-01-17 01:01:00",1598802,3.778,196,0.369,0.025,10.19,104.2038,10.04,11.04,18.52,0,110.1,13.42,10.82,158.0
"2010-01-17 01:01:30",1598803,3.708,197.3,0.715,0.046,10.01,104.2032,10.03,11.05,18.27,0,110.1,13.42,10.82,159.3
"2010-01-17 01:02:00",1598804,3.599,199.3,0.545,0.036,10.44,104.2055,10.04,11.06,18.1,0,110.1,13.42,10.83,161.3
"2010-01-17 01:02:30",1598805,3.894,202.2,4.263,0.899,11.65,104.2115,10.05,11.07,18.02,0,110.1,13.39,10.84,164.2
"2010-01-17 01:03:00",1598806,4.215,205.3,6.486,1.191,13.38,104.2187,10.07,11.24,18.14,0,110.1,13.39,10.86,167.3
"2010-01-17 01:03:30",1598807,4.77,207.3,6.76,1.299,14.42,104.2332,10.11,11.28,18.17,0,110.1,13.39,10.90,169.3
"2010-01-17 01:04:00",1598808,4.654,207.7,6.851,1.303,14.2,104.2403,10.13,11.24,18.09,0,110.1,13.39,10.92,169.7
"2010-01-17 01:04:30",1598809,3.657,203.9,5.094,0.989,12.24,104.24,10.13,11.25,18.07,0,110.1,13.39,10.92,165.9
"2010-01-17 01:05:00",1598810,3.443,203.6,5.351,0.883,11.86,104.2418,10.13,11.27,18.06,0,110.1,13.39,10.92,165.6
"2010-01-17 01:05:30",1598811,3.982,205.4,6.761,1.254,11.69,104.2427,10.13,11.12,17.9,0,110.1,13.39,10.92,167.4
"2010-01-17 01:06:00",1598812,3.184,200.8,0.581,0.056,10.21,104.245,10.14,11.13,17.94,0,110.1,13.43,10.93,162.8
"2010-01-17 01:06:30",1598813,3.307,199.6,0.655,0.065,10.58,104.2447,10.14,11.12,17.96,0,110.1,13.43,10.93,161.6
"2010-01-17 01:07:00",1598814,3.849,199.8,5.158,1.019,12.3,104.2459,10.14,11.21,18.15,0,110.1,13.4,10.93,161.8
"2010-01-17 01:07:30",1598815,5.015,201.1,7.066,1.221,14.26,104.2462,10.14,11.31,18.54,0,110.1,13.4,10.93,163.1
"2010-01-17 01:08:00",1598816,4.933,198.6,6.919,1.303,13.54,104.2465,10.14,11.25,19.02,0,110.1,13.4,10.93,160.6
"2010-01-17 01:08:30",1598817,4.135,192.8,5.223,1.074,12.37,104.2483,10.15,11.35,19.52,0,110.1,13.4,10.94,154.8
"2010-01-17 01:09:00",1598818,4.196,191.1,5.807,1.223,11.71,104.2477,10.15,11.16,19.82,0,110.1,13.39,10.94,153.1
"2010-01-17 01:09:30",1598819,4.192,192.3,6.08,1.178,11.86,104.2485,10.15,11.32,20.42,0,110.1,13.39,10.94,154.3
"2010-01-17 01:10:00",1598820,4.384,191.8,5.275,1.097,10.85,104.2494,10.15,11.16,20.34,0,110.1,13.4,10.94,153.8
"2010-01-17 01:10:30",1598821,3.898,190.2,0.477,0.057,10.1,104.2515,10.16,11.15,20.18,0,110.1,13.43,10.94,152.2
"2010-01-17 01:11:00",1598822,3.921,189.3,0.535,0.037,10.46,104.2541,10.16,11.21,20.18,0,110.1,13.43,10.95,151.3
"2010-01-17 01:11:30",1598823,5.935,197.8,6.156,1.029,14.71,104.2541,10.16,11.42,20.6,0,110.1,13.4,10.95,159.8
"2010-01-17 01:12:00",1598824,5.021,193.8,5.972,1.223,12.94,104.2544,10.16,11.31,20.66,0,110.1,13.4,10.95,155.8
"2010-01-17 01:12:30",1598825,4.017,193.5,1.351,0.057,10.81,104.2541,10.16,11.2,20.14,0,110.1,13.43,10.95,155.5
"2010-01-17 01:13:00",1598826,5.224,201.6,6.925,1.327,13.24,104.2559,10.17,11.26,19.61,0,110.1,13.4,10.96,163.6
"2010-01-17 01:13:30",1598827,4.45,198.6,5.725,1.129,12,104.2504,10.15,11.33,19.58,0,110.1,13.4,10.94,160.6
"2010-01-17 01:14:00",1598828,4.817,202.4,6.815,1.349,12.86,104.2484,10.15,11.22,19.43,0,110.1,13.4,10.94,164.4
"2010-01-17 01:14:30",1598829,3.667,195.3,0.654,0.027,10.34,104.2374,10.12,11.13,19.3,0,110.1,13.43,10.91,157.3
"2010-01-17 01:15:00",1598830,3.889,193.2,3.081,0.678,10.74,104.228,10.1,11.12,19.55,0,110.1,13.4,10.88,155.2
"2010-01-17 01:15:30",1598831,4.924,198.5,6.736,1.339,13.07,104.2279,10.1,11.33,20.15,0,110.1,13.39,10.88,160.5
"2010-01-17 01:16:00",1598832,5.413,201.9,6.223,1.212,14.28,104.23,10.1,11.36,20.3,0,110.1,13.39,10.89,163.9
"2010-01-17 01:16:30",1598833,3.763,195.7,0.96,0.031,10.54,104.2306,10.1,11.12,20.01,0,110.1,13.42,10.89,157.7
"2010-01-17 01:17:00",1598834,3.656,199.5,1.002,0.043,10.63,104.23,10.1,11.13,19.94,0,110.1,13.39,10.89,161.5
"2010-01-17 01:17:30",1598835,4.902,209.8,6.642,1.314,13.47,104.2306,10.1,11.23,19.82,0,110.1,13.39,10.89,171.8
"2010-01-17 01:18:00",1598836,4.662,211.6,6.64,1.326,12.78,104.2297,10.1,11.21,19.42,0,110.1,13.39,10.89,173.6
"2010-01-17 01:18:30",1598837,4.062,208.4,5.352,0.982,11.86,104.2308,10.1,11.26,19.28,0,110.1,13.39,10.89,170.4
"2010-01-17 01:19:00",1598838,3.63,202.9,0.818,0.069,10.51,104.2332,10.11,11.1,19.19,0,110.1,13.42,10.90,164.9
"2010-01-17 01:19:30",1598839,5.038,208.2,6.387,1.362,12.98,104.2332,10.11,11.26,19.44,0,110.1,13.39,10.90,170.2
"2010-01-17 01:20:00",1598840,5.063,206.9,6.702,1.291,13.05,104.2332,10.11,11.35,19.54,0,110.1,13.39,10.90,168.9
"2010-01-17 01:20:30",1598841,4.856,202.7,6.457,1.148,11.99,104.2335,10.11,11.12,19.35,0,110.1,13.4,10.90,164.7
"2010-01-17 01:21:00",1598842,4.105,199.9,1.073,0.07,10.5,104.2301,10.1,11.08,19.34,0,110.1,13.43,10.89,161.9
"2010-01-17 01:21:30",1598843,5.451,207,7.067,1.3,13.26,104.2262,10.09,11.24,19.36,0,110.1,13.4,10.88,169.0
"2010-01-17 01:22:00",1598844,4.932,205.1,6.007,1.231,12.69,104.2251,10.09,11.19,19.29,0,110.1,13.4,10.88,167.1
"2010-01-17 01:22:30",1598845,5.355,208,6.855,1.331,13.65,104.2236,10.09,11.21,19.24,0,110.1,13.4,10.87,170.0
"2010-01-17 01:23:00",1598846,4.103,200.8,0.772,0.025,10.81,104.222,10.08,11.08,19.07,0,110.1,13.44,10.87,162.8
"2010-01-17 01:23:30",1598847,6.12,207.7,6.087,1.136,13.98,104.2163,10.07,11.24,19.29,0,110.1,13.4,10.85,169.7
"2010-01-17 01:24:00",1598848,5.837,206,6.384,1.301,13.56,104.2158,10.07,11.24,19.82,0,110.1,13.4,10.85,168.0
"2010-01-17 01:24:30",1598849,4.084,201.6,0.638,0.038,10.39,104.2172,10.07,11.09,19.65,0,110.1,13.44,10.86,163.6
"2010-01-17 01:25:00",1598850,4.07,202.4,0.708,0.04,10.32,104.2161,10.07,11.06,19.26,0,110.1,13.44,10.85,164.4
"2010-01-17 01:25:30",1598851,4.057,202.6,0.694,0.053,10.83,104.2178,10.07,11.12,19.22,0,110.1,13.4,10.86,164.6
"2010-01-17 01:26:00",1598852,5.319,209.2,6.503,1.357,13.54,104.2166,10.07,11.16,19.24,0,110.1,13.4,10.86,171.2
"2010-01-17 01:26:30",1598853,5.163,209.1,6.316,1.287,13.04,104.2172,10.07,11.17,19.24,0,110.1,13.4,10.86,171.1
"2010-01-17 01:27:00",1598854,4.941,210.5,7.088,1.252,13.18,104.2155,10.07,11.27,19.32,0,110.1,13.4,10.85,172.5
"2010-01-17 01:27:30",1598855,5.069,210.7,6.777,1.308,12.44,104.2164,10.07,11.1,19.14,0,110.1,13.4,10.85,172.7
"2010-01-17 01:28:00",1598856,5.612,215.5,6.261,1.293,13.52,104.2161,10.07,11.21,19.17,0,110.1,13.4,10.85,177.5
"2010-01-17 01:28:30",1598857,4.026,206.8,0.741,0.043,10.27,104.2175,10.07,11.09,19.03,0,110.1,13.44,10.86,168.8
"2010-01-17 01:29:00",1598858,3.996,207.1,0.573,0.038,10.35,104.2169,10.07,11.04,18.99,0,110.1,13.44,10.86,169.1
"2010-01-17 01:29:30",1598859,3.996,207,0.675,0.045,10.66,104.2169,10.07,11.08,19.03,0,110.1,13.44,10.86,169.0
"2010-01-17 01:30:00",1598860,5.288,213.3,7.096,1.331,13.48,104.2189,10.07,11.16,19.12,0,110.1,13.4,10.86,175.3
"2010-01-17 01:30:30",1598861,4.088,207.6,3.958,0.697,12.02,104.2172,10.07,11.23,19.11,0,110.1,13.4,10.86,169.6
"2010-01-17 01:31:00",1598862,5.136,212.2,6.38,1.308,13.45,104.2178,10.07,11.31,19.19,0,110.1,13.4,10.86,174.2
"2010-01-17 01:31:30",1598863,5.398,212.2,6.562,1.257,13.79,104.2172,10.07,11.26,19.12,0,110.1,13.4,10.86,174.2
"2010-01-17 01:32:00",1598864,5.665,212.3,6.89,1.297,13.45,104.2172,10.07,11.16,19.03,0,110.1,13.4,10.86,174.3
"2010-01-17 01:32:30",1598865,4.731,208.5,6.851,1.203,12.27,104.2183,10.07,11.21,19,0,110.1,13.4,10.86,170.5
"2010-01-17 01:33:00",1598866,3.885,203.6,0.92,0.088,10.45,104.2212,10.08,11.06,18.81,0,110.1,13.43,10.87,165.6
"2010-01-17 01:33:30",1598867,3.786,202.7,0.791,0.046,10.57,104.2231,10.08,11.07,18.86,0,110.1,13.43,10.87,164.7
"2010-01-17 01:34:00",1598868,4.283,207.4,5.979,1.053,12.45,104.2257,10.09,11.23,19.01,0,110.1,13.4,10.88,169.4
"2010-01-17 01:34:30",1598869,4.338,207.4,6.223,1.17,12.57,104.2279,10.1,11.11,18.83,0,110.1,13.4,10.88,169.4
"2010-01-17 01:35:00",1598870,4.839,212.6,6.754,1.281,14.69,104.2291,10.1,11.35,19.1,0,110.1,13.4,10.89,174.6
"2010-01-17 01:35:30",1598871,5.453,217,5.456,1.179,14.95,104.2282,10.1,11.31,19.06,0,110.1,13.4,10.88,179.0
"2010-01-17 01:36:00",1598872,3.571,208.1,3.413,0.496,11.39,104.2296,10.1,11.18,18.9,0,110.1,13.4,10.89,170.1
"2010-01-17 01:36:30",1598873,4.573,212.3,7.058,1.267,11.87,104.2291,10.1,11.14,18.69,0,110.1,13.4,10.89,174.3
"2010-01-17 01:37:00",1598874,3.663,208.1,4.329,0.695,11.07,104.2294,10.1,11.18,18.46,0,110.1,13.4,10.89,170.1
"2010-01-17 01:37:30",1598875,3.415,206.2,0.599,0.055,10.34,104.2302,10.1,11.07,18.4,0,110.1,13.44,10.89,168.2
"2010-01-17 01:38:00",1598876,3.455,206.3,0.528,0.048,10.79,104.2282,10.1,11.07,18.62,0,110.1,13.44,10.88,168.3
"2010-01-17 01:38:30",1598877,4.763,213.6,6.979,1.303,13.74,104.2282,10.1,11.18,18.83,0,110.1,13.41,10.88,175.6
"2010-01-17 01:39:00",1598878,4.397,213.1,6.892,1.278,13.52,104.2277,10.1,11.2,18.91,0,110.1,13.41,10.88,175.1
"2010-01-17 01:39:30",1598879,5.036,218.3,6.581,1.309,14.31,104.226,10.09,11.29,19.05,0,110.1,13.41,10.88,180.3
"2010-01-17 01:40:00",1598880,4.317,214.7,6.367,1.213,12.19,104.226,10.09,11.21,19.02,0,110.1,13.41,10.88,176.7
"2010-01-17 01:40:30",1598881,4.732,213.9,5.73,1.334,11.87,104.2237,10.09,11.23,19.11,0,110.1,13.41,10.87,175.9
"2010-01-17 01:41:00",1598882,3.633,201.9,2.185,0.498,9.91,104.2234,10.09,11.15,19.37,0,110.1,13.41,10.87,163.9
"2010-01-17 01:41:30",1598883,3.329,196.4,0.802,0.133,9.49,104.2209,10.08,11.06,20.3,0,110.1,13.44,10.87,158.4
"2010-01-17 01:42:00",1598884,2.779,195,1.187,0.197,9.41,104.2192,10.07,11.06,21.3,0,110.1,13.44,10.86,157.0
"2010-01-17 01:42:30",1598885,2.372,189.3,2.98,0.452,10.03,104.2169,10.07,11.19,22.79,0,110.1,13.44,10.86,151.3
"2010-01-17 01:43:00",1598886,3.862,189.9,7.27,1.196,13.43,104.2042,10.04,11.18,23.81,0,110.1,13.41,10.82,151.9
"2010-01-17 01:43:30",1598887,3.234,182.7,7.236,1.256,12.52,104.202,10.03,11.19,24.3,0,110.1,13.41,10.82,144.7
"2010-01-17 01:44:00",1598888,3.185,179.4,6.432,1.325,11.64,104.202,10.03,11.11,25.15,0,110.1,13.41,10.82,141.4
"2010-01-17 01:44:30",1598889,3.473,179.7,7.062,1.387,11.19,104.2,10.03,11.23,26.59,0,110.1,13.41,10.81,141.7
"2010-01-17 01:45:00",1598890,2.983,177.3,5.142,1.118,9.16,104.1876,9.99,11.08,27.17,0,110.1,13.41,10.78,139.3
"2010-01-17 01:45:30",1598891,2.398,178.4,1.249,0.045,8.26,104.1692,9.95,11.02,26.58,0,110.1,13.44,10.73,140.4
"2010-01-17 01:46:00",1598892,2.646,182.2,1.057,0.072,8.33,104.1681,9.94,11,25.31,0,110.1,13.44,10.73,144.2
"2010-01-17 01:46:30",1598893,2.753,186,1.007,0.064,9.11,104.1604,9.92,10.98,24.59,0,110.1,13.45,10.71,148.0
"2010-01-17 01:47:00",1598894,3.306,186.4,4.386,0.709,10.51,104.1449,9.88,11.06,24.25,0,110.1,13.41,10.67,148.4
"2010-01-17 01:47:30",1598895,5.351,197.5,5.973,1.115,14.2,104.1342,9.86,11.18,23.95,0,110.1,13.41,10.64,159.5